User: anonymous   Login
Location: Unspecified
(0.0000°N, 0.0000°E)
Time: 23:05:35
(UTC+02:00)
Language:

Ariane 42L R/B - Orbit

View from above orbital plane
View from above orbital plane
View from above satellite
View from above satellite

Ground track
Ground track

The orbit data is extracted from the following two-line orbital elements,

1 26299U 00020B   17113.83008803 +.00002391 +00000-0 +88353-3 0  9998
2 26299 007.4965 351.4537 5924887 137.8932 287.1377 04.11359383216680
Epoch (UTC): 23 April 2017 19:55:19
Eccentricity: 0.5924887
inclination: 7.4965°
perigee height: 327 km
apogee height: 19823 km
right ascension of ascending node: 351.4537°
argument of perigee: 137.8932°
revolutions per day: 4.11359383
mean anomaly at epoch: 287.1377°
orbit number at epoch: 21668

The dashed part of the orbit path shows where the satellite is in the earth's shadow,  

DLR